KC9UAW Weather Reports


Display with metric or nautical units.
time (UTC)temp
F
wind
direction
speed
MPH
gust
MPH
rain 1hr
in
rain 24hr
in
rain mn
in
humidity
%
barometer
mb
20260906124504 73 48 6.0 10.0 0.00 0.00 0.00 91 1015.6
20260906123007 73 46 3.0 8.0 0.00 0.00 0.00 91 1015.5
20260906122007 73 32 2.0 8.0 0.00 0.00 0.00 91 1015.4
20260906121504 73 36 2.0 5.0 0.00 0.00 0.00 91 1015.4
20260906121007 73 16 1.0 2.0 0.00 0.00 0.00 91 1015.1
20260906120504 73 30 1.0 2.0 0.00 0.00 0.00 91 1015.1
20260906120003 73 52 2.0 2.0 0.00 0.00 0.00 91 1015.1
20260906115504 73 33 2.0 2.0 0.00 0.00 0.00 91 1015.1
20260906115007 73 52 2.0 2.0 0.00 0.00 0.00 91 1015.1
20260906114504 73 41 2.0 2.0 0.00 0.00 0.00 91 1015.1
20260906113504 73 34 2.0 2.0 0.00 0.00 0.00 90 1014.9
20260906113007 73 38 2.0 2.0 0.00 0.00 0.00 90 1014.9
20260906112007 73 63 2.0 3.0 0.00 0.00 0.00 90 1014.9
20260906111503 73 56 2.0 2.0 0.00 0.00 0.00 90 1014.9
20260906111007 74 51 2.0 5.0 0.00 0.00 0.00 90 1014.7
20260906110504 74 41 2.0 5.0 0.00 0.00 0.00 90 1014.7
20260906110004 74 45 1.0 5.0 0.00 0.00 0.00 90 1014.7
20260906105503 74 49 1.0 2.0 0.00 0.00 0.00 90 1014.6
20260906105006 74 61 2.0 2.0 0.00 0.00 0.00 90 1014.6
20260906104503 74 61 2.0 2.0 0.00 0.00 0.00 89 1014.6
20260906104006 74 65 2.0 2.0 0.00 0.00 0.00 89 1014.6
20260906103504 74 43 2.0 3.0 0.00 0.00 0.00 89 1014.6
20260906102504 74 41 2.0 3.0 0.00 0.00 0.00 89 1014.4
20260906102007 75 47 2.0 2.0 0.00 0.00 0.00 89 1014.4
20260906101503 75 38 2.0 5.0 0.00 0.00 0.00 89 1014.4
20260906101007 75 54 2.0 5.0 0.00 0.00 0.00 89 1014.4
20260906100004 75 48 2.0 5.0 0.00 0.00 0.00 89 1014.4
20260906095503 75 52 2.0 5.0 0.00 0.00 0.00 88 1014.3
20260906095007 75 40 2.0 2.0 0.00 0.00 0.00 88 1014.3
20260906094504 75 25 2.0 3.0 0.00 0.00 0.00 88 1014.3
20260906094007 76 45 2.0 6.0 0.00 0.00 0.00 88 1014.1
20260906093006 76 51 2.0 6.0 0.00 0.00 0.00 88 1014.1
20260906091503 76 41 3.0 8.0 0.00 0.00 0.00 87 1014.0
20260906091006 76 47 2.0 8.0 0.00 0.00 0.00 87 1013.9
20260906090004 76 46 2.0 5.0 0.00 0.00 0.00 87 1013.9
20260906085007 76 54 2.0 5.0 0.00 0.00 0.00 87 1013.7
20260906084503 76 58 2.0 5.0 0.00 0.00 0.00 87 1013.7
20260906084006 76 53 2.0 5.0 0.00 0.00 0.00 87 1013.9
20260906083504 77 53 2.0 5.0 0.00 0.00 0.00 87 1013.9
20260906082504 77 58 2.0 5.0 0.00 0.00 0.00 87 1013.9
20260906082007 77 54 5.0 7.0 0.00 0.00 0.00 87 1013.9
20260906081504 77 67 5.0 9.0 0.00 0.00 0.00 87 1013.9
20260906081007 77 58 2.0 9.0 0.00 0.00 0.00 87 1013.8
20260906080503 77 39 2.0 7.0 0.00 0.00 0.00 88 1013.8
20260906080003 77 53 2.0 6.0 0.00 0.00 0.00 88 1013.8
20260906075504 77 56 2.0 5.0 0.00 0.00 0.00 88 1013.7
20260906075007 78 56 2.0 5.0 0.00 0.00 0.00 88 1013.7
20260906074503 78 53 2.0 5.0 0.00 0.00 0.00 88 1013.7
20260906074007 78 60 2.0 2.0 0.00 0.00 0.00 87 1013.6
20260906073504 78 52 2.0 2.0 0.00 0.00 0.00 87 1013.6
20260906072503 79 63 1.0 2.0 0.00 0.00 0.00 86 1013.6
20260906072006 79 67 2.0 6.0 0.00 0.00 0.00 86 1013.6
20260906071504 79 65 2.0 6.0 0.00 0.00 0.00 86 1013.6
20260906071006 79 63 2.0 6.0 0.00 0.00 0.00 86 1013.7
20260906070504 80 76 3.0 6.0 0.00 0.00 0.00 86 1013.7
20260906070004 80 72 5.0 6.0 0.00 0.00 0.00 86 1013.7
20260906065006 80 74 2.0 10.0 0.00 0.00 0.00 86 1013.9
20260906064503 80 72 2.0 9.0 0.00 0.00 0.00 86 1013.9
20260906064007 80 78 3.0 7.0 0.00 0.00 0.00 86 1013.9
20260906063503 80 72 3.0 10.0 0.00 0.00 0.00 86 1013.9
20260906063006 80 94 5.0 10.0 0.00 0.00 0.00 86 1013.9
20260906062007 80 75 2.0 10.0 0.00 0.00 0.00 86 1013.9
20260906061503 80 74 2.0 7.0 0.00 0.00 0.00 86 1013.9
20260906061007 80 71 2.0 3.0 0.00 0.00 0.00 86 1014.0
20260906060003 80 72 2.0 3.0 0.00 0.00 0.00 86 1014.0
20260906055503 80 64 3.0 6.0 0.00 0.00 0.00 86 1014.0
20260906055007 79 66 5.0 7.0 0.00 0.00 0.00 87 1014.0
20260906054503 79 71 4.0 7.0 0.00 0.00 0.00 88 1014.0
20260906054006 79 70 0.0 7.0 0.00 0.00 0.00 88 1013.8
20260906053006 78 54 1.0 3.0 0.00 0.00 0.00 86 1013.8
20260906052007 79 58 1.0 2.0 0.00 0.00 0.00 86 1013.8
20260906051006 79 58 1.0 2.0 0.00 0.00 0.00 86 1013.7
20260906050503 79 57 1.0 2.0 0.00 0.00 0.00 85 1013.7
20260906045503 79 55 2.0 3.0 0.00 0.00 0.00 84 1013.5
20260906045007 79 55 0.0 3.0 0.00 0.00 0.00 84 1013.5
20260906044503 79 55 0.0 2.0 0.00 0.00 0.00 84 1013.5
20260906044007 79 55 0.0 2.0 0.00 0.00 0.00 84 1013.5
20260906043503 79 55 0.0 2.0 0.00 0.00 0.00 84 1013.5
20260906042503 79 55 0.0 2.0 0.00 0.00 0.00 84 1013.4
20260906042007 79 56 1.0 2.0 0.00 0.00 0.00 83 1013.4
20260906041006 80 56 2.0 2.0 0.00 0.00 0.00 83 1013.2
20260906040504 80 55 2.0 2.0 0.00 0.00 0.00 82 1013.2
20260906040003 80 55 0.0 2.0 0.00 0.00 0.00 82 1013.2
20260906035503 80 55 0.0 2.0 0.00 0.00 0.00 81 1013.1
20260906035007 81 54 1.0 2.0 0.00 0.00 0.00 80 1013.1
20260906034007 81 54 0.0 2.0 0.00 0.00 0.00 78 1013.0
20260906033503 81 54 0.0 2.0 0.00 0.00 0.00 77 1013.0
20260906033006 81 54 1.0 2.0 0.00 0.00 0.00 77 1013.0
20260906032503 82 54 2.0 2.0 0.00 0.00 0.00 78 1012.9
20260906031504 82 53 2.0 3.0 0.00 0.00 0.00 75 1012.9
20260906030503 83 54 1.0 2.0 0.00 0.00 0.00 76 1012.7
20260906030003 83 54 2.0 3.0 0.00 0.00 0.00 76 1012.7
20260906025503 82 54 2.0 5.0 0.00 0.00 0.00 74 1012.6
20260906025007 82 54 2.0 5.0 0.00 0.00 0.00 75 1012.6
20260906024503 82 57 2.0 3.0 0.00 0.00 0.00 75 1012.6
20260906024007 82 56 0.0 3.0 0.00 0.00 0.00 76 1012.4
20260906023006 82 57 0.0 2.0 0.00 0.00 0.00 75 1012.4
20260906022504 82 57 0.0 2.0 0.00 0.00 0.00 77 1012.3
20260906021503 82 57 0.0 2.0 0.00 0.00 0.00 74 1012.3
20260906021007 82 59 0.0 0.0 0.00 0.00 0.00 73 1012.2
20260906020504 83 59 0.0 0.0 0.00 0.00 0.00 74 1012.2
20260906015504 83 59 0.0 2.0 0.00 0.00 0.00 73 1011.9
20260906015006 83 59 0.0 2.0 0.00 0.00 0.00 72 1011.9
20260906013503 84 61 0.0 0.0 0.00 0.00 0.00 72 1011.8
20260906013006 85 61 0.0 0.0 0.00 0.00 0.00 72 1011.8
20260906012504 85 61 0.0 0.0 0.00 0.00 0.00 70 1011.8
20260906012007 85 61 0.0 0.0 0.00 0.00 0.00 68 1011.8
20260906011503 86 61 0.0 0.0 0.00 0.00 0.00 67 1011.8
20260906011006 86 61 0.0 0.0 0.00 0.00 0.00 67 1011.5
20260906010503 87 61 0.0 1.0 0.00 0.00 0.00 66 1011.5
20260906010004 87 61 0.0 2.0 0.00 0.00 0.00 66 1011.5
20260906005504 88 61 0.0 2.0 0.00 0.00 0.00 64 1011.4
20260906005006 88 61 2.0 2.0 0.00 0.00 0.00 63 1011.4
20260906004503 89 61 2.0 3.0 0.00 0.00 0.00 63 1011.4
20260906003503 89 61 2.0 5.0 0.00 0.00 0.00 60 1011.4
20260906003007 90 61 2.0 5.0 0.00 0.00 0.00 60 1011.4
20260906002007 90 61 3.0 5.0 0.00 0.00 0.00 58 1011.5
20260906001503 91 61 3.0 5.0 0.00 0.00 0.00 58 1011.5
20260906001007 91 55 5.0 6.0 0.00 0.00 0.00 57 1011.5
20260906000504 91 51 5.0 8.0 0.00 0.00 0.00 56 1011.5
20260906000004 92 51 6.0 10.0 0.00 0.00 0.00 56 1011.5
20260905235503 92 49 6.0 10.0 0.00 0.00 0.00 55 1011.5
20260905234504 93 31 6.0 10.0 0.00 0.00 0.00 53 1011.5
20260905233503 94 49 6.0 12.0 0.00 0.00 0.00 52 1011.4
20260905233006 95 17 3.0 12.0 0.00 0.00 0.00 51 1011.4
20260905232504 95 47 3.0 6.0 0.00 0.00 0.00 49 1011.4
20260905231503 96 45 3.0 7.0 0.00 0.00 0.00 48 1011.4
20260905231007 96 53 5.0 7.0 0.00 0.00 0.00 47 1011.5
20260905230504 96 68 5.0 7.0 0.00 0.00 0.00 49 1011.5
20260905230003 97 36 5.0 7.0 0.00 0.00 0.00 47 1011.5
20260905225503 97 58 5.0 7.0 0.00 0.00 0.00 46 1011.4
20260905225006 97 35 5.0 7.0 0.00 0.00 0.00 46 1011.4
20260905224504 97 26 5.0 7.0 0.00 0.00 0.00 46 1011.4
20260905224007 97 24 5.0 7.0 0.00 0.00 0.00 47 1011.4
20260905223504 97 48 5.0 7.0 0.00 0.00 0.00 46 1011.4
20260905223007 97 28 5.0 7.0 0.00 0.00 0.00 46 1011.4
20260905222503 97 47 5.0 8.0 0.00 0.00 0.00 45 1011.5
20260905221504 98 33 5.0 10.0 0.00 0.00 0.00 44 1011.5
20260905221006 98 47 6.0 10.0 0.00 0.00 0.00 44 1011.4
20260905220503 97 10 7.0 12.0 0.00 0.00 0.00 44 1011.4
20260905220003 97 23 8.0 14.0 0.00 0.00 0.00 44 1011.4
20260905215504 98 42 9.0 15.0 0.00 0.00 0.00 44 1011.1
20260905215006 98 21 9.0 15.0 0.00 0.00 0.00 44 1011.1
20260905214504 98 27 9.0 15.0 0.00 0.00 0.00 42 1011.1
20260905214007 99 50 8.0 17.0 0.00 0.00 0.00 42 1011.2
20260905213504 99 32 8.0 17.0 0.00 0.00 0.00 41 1011.2
20260905213007 100 42 5.0 15.0 0.00 0.00 0.00 40 1011.2
20260905212504 101 16 5.0 15.0 0.00 0.00 0.00 40 1011.3
20260905212006 100 11 5.0 10.0 0.00 0.00 0.00 41 1011.3
20260905211504 100 322 5.0 10.0 0.00 0.00 0.00 40 1011.3
20260905210504 100 310 5.0 9.0 0.00 0.00 0.00 39 1011.4
20260905210004 100 9 6.0 12.0 0.00 0.00 0.00 41 1011.4
20260905205503 100 32 6.0 14.0 0.00 0.00 0.00 40 1011.6
20260905205006 100 19 6.0 14.0 0.00 0.00 0.00 42 1011.6
20260905204007 100 44 6.0 12.0 0.00 0.00 0.00 39 1011.7
20260905203503 101 325 6.0 14.0 0.00 0.00 0.00 41 1011.7
20260905203006 100 313 6.0 14.0 0.00 0.00 0.00 39 1011.7
20260905202504 100 2 6.0 13.0 0.00 0.00 0.00 38 1011.8
20260905202006 100 307 6.0 12.0 0.00 0.00 0.00 40 1011.8
20260905201006 100 311 5.0 12.0 0.00 0.00 0.00 40 1012.0
20260905200004 100 306 6.0 12.0 0.00 0.00 0.00 40 1012.0
20260905195006 100 301 5.0 12.0 0.00 0.00 0.00 41 1012.2
20260905194503 100 315 5.0 13.0 0.00 0.00 0.00 41 1012.2
20260905194006 100 292 6.0 13.0 0.00 0.00 0.00 42 1012.5
20260905193504 100 308 6.0 13.0 0.00 0.00 0.00 41 1012.5
20260905193007 99 288 6.0 13.0 0.00 0.00 0.00 43 1012.5
20260905192504 99 13 6.0 10.0 0.00 0.00 0.00 43 1012.6
20260905191504 99 358 6.0 15.0 0.00 0.00 0.00 43 1012.6
20260905191006 98 38 5.0 15.0 0.00 0.00 0.00 45 1012.8
20260905190503 98 244 5.0 9.0 0.00 0.00 0.00 49 1012.8
20260905190003 99 307 5.0 12.0 0.00 0.00 0.00 43 1012.8
20260905185504 99 243 5.0 14.0 0.00 0.00 0.00 41 1012.9
20260905185006 99 298 6.0 14.0 0.00 0.00 0.00 44 1012.9
20260905184503 99 321 6.0 10.0 0.00 0.00 0.00 45 1012.9
20260905183503 99 20 7.0 13.0 0.00 0.00 0.00 46 1013.0
20260905183007 99 40 6.0 13.0 0.00 0.00 0.00 45 1013.0
20260905182503 99 29 6.0 13.0 0.00 0.00 0.00 47 1013.2
20260905182007 98 320 6.0 14.0 0.00 0.00 0.00 47 1013.2
20260905181503 98 318 6.0 14.0 0.00 0.00 0.00 46 1013.2
20260905181007 98 23 5.0 10.0 0.00 0.00 0.00 46 1013.3
20260905180504 98 4 5.0 8.0 0.00 0.00 0.00 47 1013.3
20260905180004 98 296 6.0 10.0 0.00 0.00 0.00 49 1013.3
20260905175504 97 353 6.0 10.0 0.00 0.00 0.00 49 1013.4
20260905175006 97 6 5.0 12.0 0.00 0.00 0.00 48 1013.4
20260905174503 97 334 5.0 12.0 0.00 0.00 0.00 49 1013.4
20260905174007 97 256 5.0 9.0 0.00 0.00 0.00 52 1013.5
20260905173504 97 266 5.0 9.0 0.00 0.00 0.00 49 1013.5
20260905173006 96 314 3.0 8.0 0.00 0.00 0.00 50 1013.5
20260905172503 96 300 3.0 7.0 0.00 0.00 0.00 50 1013.7
20260905172007 96 281 5.0 7.0 0.00 0.00 0.00 50 1013.7
20260905171504 96 273 5.0 7.0 0.00 0.00 0.00 50 1013.7
20260905171007 96 354 5.0 9.0 0.00 0.00 0.00 52 1014.0
20260905170004 95 309 5.0 9.0 0.00 0.00 0.00 53 1014.0
20260905165503 95 310 5.0 8.0 0.00 0.00 0.00 54 1014.1
20260905165006 95 299 5.0 9.0 0.00 0.00 0.00 54 1014.1
20260905164503 94 332 5.0 9.0 0.00 0.00 0.00 55 1014.1
20260905164007 94 3 5.0 9.0 0.00 0.00 0.00 55 1014.2
20260905163504 94 319 5.0 10.0 0.00 0.00 0.00 54 1014.2
20260905163007 94 350 5.0 10.0 0.00 0.00 0.00 55 1014.2
20260905162503 94 285 5.0 9.0 0.00 0.00 0.00 56 1014.2
20260905162006 93 292 5.0 9.0 0.00 0.00 0.00 56 1014.2
20260905161503 93 315 5.0 10.0 0.00 0.00 0.00 58 1014.2
20260905161007 93 320 6.0 10.0 0.00 0.00 0.00 57 1014.3
20260905160504 92 281 6.0 10.0 0.00 0.00 0.00 58 1014.3
20260905160004 92 283 6.0 13.0 0.00 0.00 0.00 62 1014.3
20260905155504 92 301 6.0 13.0 0.00 0.00 0.00 60 1014.4
20260905154503 91 325 5.0 9.0 0.00 0.00 0.00 62 1014.4
20260905154007 90 303 5.0 9.0 0.00 0.00 0.00 61 1014.3
20260905153504 90 310 5.0 9.0 0.00 0.00 0.00 63 1014.3
20260905153006 90 293 6.0 8.0 0.00 0.00 0.00 62 1014.3
20260905152007 89 308 5.0 10.0 0.00 0.00 0.00 65 1014.3
20260905151503 88 302 4.0 9.0 0.00 0.00 0.00 67 1014.3
20260905151007 87 311 2.0 8.0 0.00 0.00 0.00 69 1014.4
20260905150004 87 333 3.0 7.0 0.00 0.00 0.00 68 1014.4
20260905145006 87 299 5.0 8.0 0.00 0.00 0.00 68 1014.3
20260905144504 87 241 5.0 9.0 0.00 0.00 0.00 66 1014.3
20260905144006 87 277 5.0 9.0 0.00 0.00 0.00 68 1014.3
20260905143504 87 300 5.0 9.0 0.00 0.00 0.00 68 1014.3
20260905143007 87 300 6.0 10.0 0.00 0.00 0.00 67 1014.3
20260905142503 87 315 6.0 10.0 0.00 0.00 0.00 67 1014.3
20260905142006 87 297 5.0 10.0 0.00 0.00 0.00 71 1014.3
20260905141504 86 314 5.0 8.0 0.00 0.00 0.00 71 1014.3
20260905141006 85 311 5.0 8.0 0.00 0.00 0.00 71 1014.3
20260905140504 85 312 4.0 8.0 0.00 0.00 0.00 73 1014.3
20260905140004 84 329 3.0 7.0 0.00 0.00 0.00 74 1014.3
20260905135503 84 307 3.0 6.0 0.00 0.00 0.00 76 1014.2
20260905135006 83 263 2.0 6.0 0.00 0.00 0.00 75 1014.2
20260905134503 83 291 2.0 6.0 0.00 0.00 0.00 78 1014.2
20260905134006 82 270 2.0 6.0 0.00 0.00 0.00 79 1014.1
20260905133504 81 270 2.0 6.0 0.00 0.00 0.00 81 1014.1
20260905133006 81 260 2.0 6.0 0.00 0.00 0.00 81 1014.1
20260905132503 80 244 2.0 5.0 0.00 0.00 0.00 84 1014.0
20260905132007 80 268 2.0 5.0 0.00 0.00 0.00 84 1014.0
20260905131504 79 218 2.0 5.0 0.00 0.00 0.00 86 1014.0
20260905131007 79 177 2.0 5.0 0.00 0.00 0.00 87 1014.0
20260905130004 77 302 0.0 3.0 0.00 0.00 0.00 88 1014.0
20260905125504 77 303 0.0 3.0 0.00 0.00 0.00 89 1013.9
20260905125006 77 172 1.0 2.0 0.00 0.00 0.00 90 1013.9